Overview Statistics Trail Chart Weather Telemetry Raw packets
 

This is the latest recevied weather packets stored in our database for station/object N9BLE. If no packets are shown the sender has not sent any weather packets the latest 10 day(s).

<< 30 31 32 33 34 35 36 >>
Time Temp. Humidity Pressure Rain* Wind** Luminosity Snow
1777838718 17.78° C 51% 1012 hPa 0 mm - 251 W/m² -
1777838415 17.78° C 46% 1012 hPa 0 mm - 231 W/m² -
1777838113 17.78° C 47% 1012 hPa 0 mm - 298 W/m² -
1777837809 17.78° C 47% 1012.1 hPa 0 mm - 236 W/m² -
1777837527 18.33° C 46% 1012.3 hPa 0 mm - 249 W/m² -
1777837206 18.33° C 48% 1012.1 hPa 0 mm - 679 W/m² -
1777836903 18.89° C 46% 1012.4 hPa 0 mm - 214 W/m² -
1777836598 18.33° C 49% 1012.3 hPa 0 mm - 719 W/m² -
1777836295 17.78° C 49% 1012.3 hPa 0 mm - 311 W/m² -
1777835990 18.33° C 48% 1012.5 hPa 0 mm - 230 W/m² -
1777835688 19.44° C 48% 1012.3 hPa 0 mm - 777 W/m² -
1777835384 18.33° C 52% 1012.7 hPa 0 mm - 822 W/m² -
1777835082 17.78° C 58% 1012.8 hPa 0 mm - 741 W/m² -
1777834778 17.22° C 56% 1012.8 hPa 0 mm - 710 W/m² -
1777834475 17.22° C 59% 1012.6 hPa 0 mm - 373 W/m² -
1777834174 17.22° C 55% 1012.8 hPa 0 mm - 670 W/m² -
1777833871 16.11° C 63% 1012.6 hPa 0 mm - 735 W/m² -
1777833567 16.11° C 62% 1012.6 hPa 0 mm - 731 W/m² -
1777833264 16.11° C 61% 1012.9 hPa 0 mm - 737 W/m² -
1777832961 16.11° C 61% 1013.2 hPa 0 mm - 745 W/m² -
1777832660 15.56° C 62% 1013 hPa 0 mm - 731 W/m² -
1777832357 15° C 68% 1013.2 hPa 0 mm - 747 W/m² -
1777832054 14.44° C 66% 1013.1 hPa 0 mm - 720 W/m² -
1777831750 15° C 68% 1013.4 hPa 0 mm - 678 W/m² -
1777831460 14.44° C 68% 1013.4 hPa 0 mm - 767 W/m² -

* Rain latest hour (hover to see other rain measurements)
** Current wind speed in m/s (hover to see current wind gust speed)